GSE Systems ROA 2010-2023 | GVP

Current and historical return on assets (ROA) values for GSE Systems (GVP) over the last 10 years. Return on assets can be defined as an indicator of how profitable a company is relative to its total assets. Calculated by dividing a company's operating earnings by its total assets.
GSE Systems ROA - Return on Assets Historical Data
Date TTM Net Income Total Assets Return on Assets
2023-12-31 $-0.01B $0.02B -34.04%
2023-09-30 $-0.01B $0.02B -32.99%
2023-06-30 $-0.02B $0.02B -58.82%
2023-03-31 $-0.02B $0.02B -52.17%
2022-12-31 $-0.02B $0.03B -45.80%
2022-09-30 $-0.02B $0.03B -41.67%
2022-06-30 $0.01B $0.04B 12.74%
2022-03-31 $0.01B $0.04B 22.50%
2021-12-31 $0.01B $0.04B 25.48%
2021-09-30 $0.01B $0.04B 28.03%
2021-06-30 $-0.00B $0.04B -2.53%
2021-03-31 $-0.01B $0.04B -13.95%
2020-12-31 $-0.01B $0.04B -21.74%
2020-09-30 $-0.02B $0.04B -29.41%
2020-06-30 $-0.02B $0.05B -26.55%
2020-03-31 $-0.01B $0.05B -21.58%
2019-12-31 $-0.01B $0.06B -16.73%
2019-09-30 $-0.00B $0.06B -6.04%
2019-06-30 $-0.00B $0.07B -6.18%
2019-03-31 $-0.00B $0.07B -4.80%
2018-12-31 $0.00B $0.06B 0.00%
2018-09-30 $0.01B $0.06B 10.57%
2018-06-30 $0.01B $0.06B 10.91%
2018-03-31 $0.01B $0.05B 11.43%
2017-12-31 $0.01B $0.06B 13.59%
2017-09-30 $0.00B $0.05B 1.96%
2017-06-30 $0.00B $0.05B 4.04%
2017-03-31 $0.00B $0.05B 2.12%
2016-12-31 $0.00B $0.05B 2.22%
2016-09-30 $0.00B $0.05B 2.42%
2016-06-30 $-0.00B $0.04B -7.50%
2016-03-31 $-0.00B $0.04B -9.88%
2015-12-31 $-0.00B $0.04B -9.64%
2015-09-30 $-0.01B $0.04B -13.87%
2015-06-30 $-0.00B $0.04B -9.25%
2015-03-31 $-0.01B $0.04B -11.70%
2014-12-31 $-0.01B $0.05B -16.37%
2014-09-30 $-0.01B $0.04B -13.79%
2014-06-30 $-0.01B $0.04B -10.93%
2014-03-31 $-0.01B $0.04B -22.68%
2013-12-31 $-0.01B $0.05B -19.23%
2013-09-30 $-0.01B $0.05B -18.02%
2013-06-30 $-0.01B $0.05B -13.68%
2013-03-31 $0.00B $0.06B 0.00%
2012-12-31 $0.00B $0.06B 3.32%
2012-09-30 $0.00B $0.06B 5.06%
2012-06-30 $0.00B $0.06B 5.13%
2012-03-31 $0.00B $0.06B 5.15%
2011-12-31 $0.00B $0.06B 5.15%
2011-09-30 $-0.00B $0.06B -1.75%
2011-06-30 $-0.00B $0.06B -5.24%
2011-03-31 $-0.00B $0.06B -5.22%
2010-12-31 $-0.00B $0.05B -7.24%
2010-09-30 $-0.00B $0.06B -5.53%
2010-06-30 $-0.00B $0.06B -3.85%
2010-03-31 $-0.00B $0.05B -2.16%
2009-12-31 $-0.00B $0.05B -2.40%
Sector Industry Market Cap Revenue
Computer and Technology Computer Software $0.009B $0.045B
GSE Systems, Inc. develops and delivers business and technology solutions by applying process control and simulation software, systems and services to the pharmaceutical and chemical research & development, energy, process and manufacturing industries worldwide. The company's products are used in the following industries: specialty chemical, food and beverage, petroleum refining, pharmaceutical, fossil and nuclear power generation, metals and water treatment. (PRESS RELEASE)
Stock Name Country Market Cap PE Ratio
Microsoft (MSFT) United States $2979.308B 36.25
Oracle (ORCL) United States $314.786B 25.62
Salesforce (CRM) United States $265.596B 44.31
Adobe (ADBE) United States $209.167B 34.97
Intuit (INTU) United States $170.736B 57.26
Synopsys (SNPS) United States $78.612B 56.71
Cadence Design Systems (CDNS) United States $77.594B 73.84
Dassault Systemes SA (DASTY) France $54.970B 36.03
Autodesk (ADSK) United States $46.444B 45.71
ANSYS (ANSS) United States $28.356B 47.84
MicroStrategy (MSTR) United States $22.466B 44.76
PTC (PTC) United States $21.346B 62.87
SS&C Technologies Holdings (SSNC) United States $15.138B 14.90
Manhattan Associates (MANH) United States $14.058B 80.96
Open Text (OTEX) Canada $9.662B 10.36
Descartes Systems Group (DSGX) Canada $7.806B 68.39
Trend Micro (TMICY) Japan $7.315B 64.90
Pegasystems (PEGA) United States $4.880B 66.85
Blackbaud (BLKB) United States $4.205B 37.62
CommVault Systems (CVLT) United States $4.183B 74.64
ACI Worldwide (ACIW) United States $3.432B 17.62
Progress Software (PRGS) United States $2.246B 14.06
Verint Systems (VRNT) United States $1.819B 16.95
Sapiens (SPNS) Israel $1.680B 23.80
BlackBerry (BB) Canada $1.650B 0.00
PROS Holdings (PRO) United States $1.580B 0.00
Simulations Plus (SLP) United States $0.899B 66.18
Rand Worldwide (RWWI) United States $0.574B 0.00
Magic Software Enterprises (MGIC) Israel $0.569B 11.71
American Software (AMSWA) United States $0.348B 29.11
Canaan (CAN) China $0.217B 0.00
Rigetti Computing (RGTI) United States $0.180B 0.00
OptimizeRx (OPRX) United States $0.165B 0.00
Icad Inc (ICAD) United States $0.040B 0.00
Hanryu Holdings (HRYU) South Korea $0.031B 0.00
NetSol Technologies (NTWK) United States $0.030B 0.00
Neonode (NEON) Sweden $0.029B 0.00
Wetouch Technology (WETH) $0.029B 0.00
Smith Micro Software (SMSI) United States $0.021B 0.00
SAP SE (SAP) Germany $0.000B 45.57